Theta_e
321 312 312 307 301 296 292 294 297 297 298 302 301 300 301 304 299 296 317 335 340 344 347 347 348 352 352 351 351 350 348 346 343 342 340 339 339 339 338 337 337 339 340 341 342 343 343 342 340
315 312 308 300 294 290 291 294 295 297 303 304 304 305 306 306 313 318 325 333 343 345 347 348 346 351 351 351 350 349 348 345 343 342 340 339 338 337 335 335 334 335 337 340 340 342 342 339 338
312 307 306 296 289 289 290 294 296 300 302 300 304 308 307 308 313 319 323 336 344 345 347 347 347 351 352 350 349 349 348 346 343 342 340 338 336 334 332 331 330 331 333 337 339 340 340 337 335
308 306 298 294 292 294 296 296 297 300 301 302 305 305 311 316 316 320 334 341 344 345 346 345 347 350 351 350 348 348 348 348 344 342 340 339 338 335 331 328 328 328 330 334 334 336 336 332 329
302 299 293 291 292 294 294 297 299 298 298 301 302 302 309 315 318 326 336 342 342 344 346 346 345 347 348 349 348 347 347 347 344 342 340 339 338 337 335 328 326 326 327 329 330 331 329 325 323
300 297 291 289 291 294 296 296 299 297 298 300 302 305 308 311 321 326 338 340 342 344 344 345 339 342 344 346 347 347 346 346 344 342 340 339 337 336 335 330 326 325 326 326 326 326 325 322 320
298 294 291 289 290 294 296 296 296 297 298 300 305 302 306 310 321 324 330 333 340 343 343 343 344 341 337 340 342 343 344 344 343 342 342 340 337 337 335 333 329 326 324 323 323 322 321 319 318
295 293 290 289 290 293 295 296 297 298 298 301 304 300 303 312 317 318 321 324 332 339 340 341 342 342 343 343 334 337 339 340 340 339 336 334 333 333 332 330 330 327 324 322 321 320 319 317 316
296 291 288 290 290 293 294 295 296 298 298 299 300 301 304 313 312 315 316 317 321 324 332 337 340 341 341 341 336 332 334 336 335 334 330 329 333 332 331 328 329 327 324 321 319 318 317 315 314
292 289 290 292 292 293 295 295 296 297 297 298 298 300 305 311 311 316 318 319 319 319 319 326 333 336 339 339 339 339 338 342 340 338 334 335 332 333 328 324 324 325 323 321 320 317 313 309 308
292 289 291 293 294 296 295 294 296 295 294 297 299 299 303 309 310 316 318 320 318 317 316 318 318 320 326 334 340 339 339 340 338 335 334 333 330 329 325 324 321 319 315 315 314 313 311 309 308
291 292 292 296 297 295 294 295 294 294 298 299 298 300 304 309 310 314 317 316 312 312 314 313 316 316 318 322 333 341 338 337 337 334 333 331 329 327 323 322 320 317 316 314 315 313 311 308 306
292 293 294 295 295 294 296 295 295 295 297 298 297 298 302 309 311 308 312 312 309 310 311 312 312 315 316 317 327 333 337 338 338 333 333 331 328 325 324 320 318 316 314 313 313 312 310 306 303
294 294 294 295 295 295 295 293 295 296 296 297 297 297 300 304 309 305 304 307 305 307 308 310 311 313 315 316 326 330 332 331 333 332 332 329 328 325 322 318 317 314 313 312 312 310 306 303 300
294 291 293 293 294 295 295 293 294 295 295 296 296 296 297 299 300 306 307 304 303 304 306 307 310 314 314 315 325 326 327 327 327 329 328 328 328 323 320 317 316 316 312 309 308 307 303 300 296
291 290 287 291 293 294 294 289 294 294 295 296 295 295 295 297 298 300 302 302 302 303 304 306 311 314 315 317 322 322 320 321 321 322 327 326 324 322 318 316 315 312 309 307 306 304 301 298 293
288 284 285 289 293 292 292 290 293 293 293 293 294 294 294 295 296 297 299 300 301 302 304 305 311 313 314 315 316 317 315 316 317 317 319 321 321 319 317 314 310 307 304 304 302 301 299 293 290
284 284 285 286 290 290 289 290 293 293 292 293 294 294 293 295 297 299 297 298 299 301 303 306 309 311 311 310 309 307 308 307 311 312 312 315 315 314 313 308 304 302 300 299 299 298 296 292 289
286 285 284 287 291 290 289 289 293 293 291 292 293 293 295 295 299 297 297 297 297 300 301 304 308 309 308 308 307 305 305 303 302 304 304 305 308 308 308 303 298 299 300 299 298 297 292 289 289
286 285 285 288 289 290 289 289 292 293 292 294 296 297 296 297 295 295 295 295 297 299 301 303 307 307 307 310 306 303 302 298 298 297 299 301 300 303 303 300 295 296 296 297 298 295 291 290 291
286 285 285 287 288 288 286 285 288 291 293 295 295 297 298 297 297 295 293 294 296 298 300 303 307 306 307 306 298 296 297 295 294 294 294 295 300 299 297 296 293 295 298 297 297 294 292 289 287
284 289 288 287 286 282 286 280 286 289 291 291 294 295 296 297 296 295 293 293 295 297 301 303 307 305 305 299 301 301 301 298 296 295 293 292 294 294 295 291 290 294 297 295 294 292 291 290 287
287 289 288 286 284 282 282 282 285 287 288 292 295 297 297 294 294 294 293 295 296 297 299 303 305 305 303 300 302 303 303 300 295 292 290 290 289 290 288 288 288 290 292 292 291 288 288 290 287
290 288 286 284 283 279 282 283 282 285 289 291 293 296 294 293 293 293 292 293 294 297 299 302 304 304 300 300 300 303 301 292 291 290 288 288 288 286 286 285 286 287 287 287 287 287 287 286 286
288 286 279 277 276 278 281 280 284 289 289 292 294 295 292 293 293 291 290 291 293 295 298 301 303 303 299 299 300 301 297 295 293 291 289 286 285 284 284 284 285 285 285 285 285 285 285 285 285
287 286 279 272 274 277 281 279 285 290 292 292 291 291 291 293 292 291 290 291 292 295 297 300 301 301 298 298 298 299 296 295 294 292 290 289 288 286 284 283 284 284 284 284 284 284 284 284 284
285 283 286 282 270 275 281 283 288 289 290 291 292 290 291 292 292 291 290 291 292 294 297 299 301 300 297 297 296 293 293 294 292 290 289 287 287 284 283 283 283 283 283 283 283 283 282 283 283
287 289 282 280 273 270 279 280 284 288 290 292 291 292 292 292 291 290 289 290 292 294 297 300 301 298 295 296 293 293 292 292 290 288 286 286 284 283 282 282 283 282 282 282 283 282 282 282 281
285 284 283 284 280 275 274 284 286 289 290 291 292 292 292 292 291 290 289 290 291 293 295 298 296 293 292 293 292 291 290 290 288 287 285 284 283 283 282 282 282 282 281 281 281 281 281 280 280
284 284 285 281 278 279 279 285 288 289 289 290 291 291 290 291 290 289 289 289 289 291 291 293 294 293 292 292 291 290 289 289 287 286 284 283 282 282 282 281 282 281 281 281 281 280 280 280 279
Wind_Speed
5 4 2 5 4 5 0 3 0 3 2 1 3 4 5 2 3 2 1 7 8 11 10 12 13 13 12 13 13 14 15 14 15 15 14 15 15 16 15 15 14 14 15 16 16 16 18 18 18
3 1 5 3 5 3 4 2 5 4 2 6 4 2 2 1 1 4 6 7 10 11 9 10 12 13 12 12 12 14 15 14 15 14 15 16 16 15 15 15 15 14 15 15 16 17 18 18 18
1 4 4 5 3 4 4 4 5 2 5 2 3 2 4 4 1 4 1 10 11 9 8 9 11 13 12 12 12 12 14 13 15 15 15 15 15 15 15 15 15 15 15 16 17 17 18 18 18
2 4 5 5 3 3 2 4 5 7 3 1 3 3 1 1 2 1 2 10 13 11 10 10 11 12 12 12 12 12 13 15 15 15 15 15 15 15 15 15 16 16 16 17 17 18 19 19 20
4 3 4 3 2 3 4 2 6 6 3 3 2 3 2 1 1 1 6 9 13 10 9 10 10 11 11 11 12 13 13 14 15 15 14 14 14 14 15 15 16 17 17 18 18 19 20 21 21
4 3 4 2 3 3 3 5 6 4 3 3 2 5 4 1 2 2 7 8 8 12 9 9 9 9 10 11 12 12 12 14 15 15 14 13 14 15 15 16 17 18 18 19 19 19 21 22 21
6 4 4 4 2 2 5 7 5 6 4 4 4 5 2 2 4 4 6 5 6 7 10 9 9 8 9 9 9 10 12 13 14 14 12 12 12 14 14 15 17 18 19 19 20 20 21 22 22
6 6 4 3 4 5 5 6 1 6 5 2 3 4 4 4 6 6 5 4 4 6 7 9 8 7 7 8 10 9 10 12 12 11 11 10 12 12 13 11 16 19 19 19 20 21 21 21 21
3 6 3 5 7 5 4 5 0 1 5 3 5 3 1 3 8 6 4 3 3 3 6 6 8 8 8 7 8 11 12 12 12 11 12 10 8 10 12 12 15 19 19 19 19 20 21 21 21
5 4 9 5 5 4 5 4 7 4 3 4 3 4 2 5 5 9 8 9 6 6 5 5 6 4 4 4 6 7 8 9 9 10 10 5 7 8 9 12 15 17 18 20 20 20 18 14 9
3 5 5 4 3 2 4 2 5 7 4 8 10 5 6 6 8 9 9 8 9 6 5 6 4 3 2 1 4 3 3 5 5 8 8 7 6 6 5 5 6 7 10 8 10 10 9 12 9
2 1 4 3 3 3 4 5 4 7 7 1 8 4 7 12 13 13 12 9 8 6 6 5 5 4 3 2 1 3 6 5 5 8 9 7 5 6 5 5 5 5 4 8 9 7 11 13 13
2 3 2 0 2 2 3 4 7 8 10 2 2 6 11 11 11 5 5 5 6 7 7 7 4 5 4 3 2 2 4 6 7 7 9 8 7 6 6 6 5 5 5 7 9 9 10 12 13
2 1 1 1 1 2 3 2 1 4 3 5 5 9 9 12 14 4 6 9 9 6 7 6 6 4 4 5 6 4 3 3 5 6 8 9 7 7 7 7 7 6 6 6 9 8 9 9 9
2 1 5 2 2 3 3 6 12 3 2 7 9 7 8 12 7 15 13 12 10 6 6 8 7 6 6 6 5 4 4 4 3 5 8 10 10 9 9 7 7 8 6 9 9 10 10 9 9
4 5 2 2 3 2 4 8 6 0 5 12 8 8 8 11 13 10 9 9 9 7 9 7 6 7 7 6 5 4 3 3 4 3 7 10 9 11 9 7 7 7 6 7 8 8 9 9 8
6 3 3 8 6 1 4 8 6 0 4 9 8 9 9 10 9 13 12 11 10 10 9 9 8 8 8 6 4 5 4 3 4 4 4 9 10 11 9 7 7 8 7 5 9 8 10 10 10
6 4 4 5 2 1 4 15 11 8 5 10 9 9 11 12 20 15 14 11 10 10 9 7 8 8 8 6 4 3 3 2 2 4 3 7 7 11 10 8 8 7 8 7 8 12 9 10 11
6 4 4 5 4 4 9 11 16 8 6 12 14 14 15 16 17 10 12 13 11 9 10 11 11 10 9 5 5 4 3 2 2 2 4 5 7 8 12 9 9 7 10 11 12 12 15 9 11
3 3 5 6 3 6 9 16 14 10 11 13 17 16 18 16 9 9 12 12 14 13 13 12 13 13 10 7 3 3 4 2 3 2 3 6 6 8 9 12 8 8 9 13 14 14 10 7 6
4 6 6 7 3 4 6 9 9 6 12 13 14 19 17 19 18 11 11 13 12 15 17 15 14 14 11 9 7 5 6 4 2 1 2 3 8 8 9 9 11 9 10 12 13 13 10 9 3
6 8 5 4 2 5 1 9 8 6 10 8 13 14 20 16 11 6 11 13 16 18 13 14 14 14 12 12 10 10 6 6 4 4 3 4 5 7 9 10 9 10 8 12 11 9 6 7 7
6 6 6 3 3 4 1 5 5 1 7 16 17 19 14 9 9 10 12 14 12 12 14 13 14 14 12 13 12 10 8 4 5 6 6 4 3 4 6 8 9 9 7 9 11 8 8 5 6
10 6 6 5 2 6 11 9 4 6 9 7 8 12 6 6 7 7 6 6 7 9 12 14 16 15 14 13 12 13 12 10 8 8 7 4 3 3 4 6 7 7 8 9 8 7 9 7 5
3 7 2 4 1 12 3 3 7 9 10 10 12 10 3 2 1 3 5 6 7 10 12 13 17 16 14 14 13 13 12 13 14 13 10 10 6 5 8 8 9 7 8 8 8 8 8 8 7
9 8 8 9 5 7 2 10 9 11 11 11 8 6 3 4 5 5 6 6 8 10 11 13 15 13 13 12 12 10 11 8 8 11 10 9 9 9 10 10 10 10 10 9 8 7 6 8 7
7 7 4 3 2 3 7 10 8 9 12 9 12 1 7 8 6 7 6 6 7 9 12 14 15 14 14 14 10 9 9 10 10 11 10 8 7 7 9 10 12 11 10 10 9 7 8 8 7
6 7 4 2 4 6 7 7 9 6 10 13 6 9 9 7 6 5 5 6 5 7 9 11 12 14 12 11 10 9 10 10 10 10 11 10 8 10 10 10 11 11 10 10 10 8 9 10 7
4 4 2 4 5 6 4 14 9 9 7 8 6 4 4 5 5 5 5 4 5 5 6 9 10 12 13 13 12 12 11 11 11 11 11 10 10 11 11 11 12 12 12 10 10 10 11 11 10
1 5 7 6 6 4 2 21 3 2 3 3 2 3 2 3 4 3 3 4 5 8 8 10 12 12 12 12 12 13 12 11 11 10 10 11 11 10 10 9 11 10 12 11 11 12 10 12 11
Wind_Direction
340 0 67 44 60 63 198 230 304 164 187 189 104 153 183 107 162 184 271 170 152 148 153 155 150 142 135 134 134 123 110 108 97 93 90 87 87 85 84 83 79 78 81 83 81 83 86 84 83
335 131 48 78 87 82 257 233 202 209 135 131 102 86 97 147 212 131 134 174 154 148 153 151 139 140 141 134 134 129 123 116 108 101 95 89 86 83 80 78 78 79 81 83 86 87 87 85 82
153 32 81 89 104 176 203 206 164 111 151 186 108 31 152 166 173 162 187 157 149 148 147 146 140 143 141 140 140 136 128 121 113 108 99 95 91 88 83 81 79 80 82 83 83 82 85 82 75
63 20 45 81 202 237 214 181 156 136 259 229 127 119 285 236 167 69 142 156 152 155 153 153 148 150 147 146 145 141 136 128 122 113 107 103 97 91 89 84 82 81 82 84 83 83 81 77 73
34 57 66 75 271 266 248 200 157 156 148 171 192 186 210 239 288 318 167 155 155 157 157 160 158 155 155 154 151 147 140 133 123 118 113 107 99 95 91 89 87 85 85 87 83 81 79 75 72
44 94 68 208 258 243 250 165 151 168 150 159 127 147 218 305 174 125 153 160 163 161 165 163 163 158 157 157 154 149 146 140 130 127 123 111 104 97 95 94 90 88 87 84 84 84 80 77 77
117 86 182 172 236 297 213 149 168 174 155 229 148 143 250 249 153 136 136 136 161 165 165 165 167 167 159 151 152 153 149 143 138 135 126 113 102 95 94 95 92 87 85 85 84 84 84 81 77
104 89 117 225 193 239 184 177 172 160 218 91 182 192 215 203 146 125 115 112 134 159 157 157 163 170 169 162 155 150 148 146 143 135 127 122 108 95 88 80 91 91 90 88 88 88 88 88 85
131 70 184 216 156 233 152 177 16 143 123 231 201 173 234 118 129 124 129 114 128 131 159 161 167 180 184 174 169 160 154 150 143 140 144 135 123 112 103 88 93 95 93 91 92 92 91 89 84
86 116 214 201 194 213 184 179 169 161 140 247 263 233 119 149 170 167 175 174 174 174 173 159 157 171 186 171 175 169 163 162 163 164 156 133 126 119 105 96 90 93 95 96 94 92 87 84 83
151 180 188 209 215 206 173 198 175 144 224 216 209 190 173 181 189 189 195 185 182 173 164 163 133 121 134 221 179 169 169 162 161 153 151 136 124 123 115 109 103 100 97 98 95 91 85 86 86
120 192 179 158 156 135 174 124 207 196 222 158 222 167 164 186 199 199 197 186 166 167 171 166 160 157 174 195 227 185 172 170 163 166 151 147 140 133 126 115 115 108 107 106 100 94 93 87 83
129 196 210 42 137 199 152 213 227 239 242 169 133 182 191 196 205 211 196 187 175 186 182 183 174 177 178 213 201 205 185 180 174 167 160 153 149 143 132 124 118 115 115 112 109 103 97 91 88
158 179 307 349 197 237 218 209 173 263 145 190 191 215 210 206 205 174 199 204 198 190 192 184 198 198 182 200 202 191 205 158 154 162 164 156 150 147 136 133 129 121 126 122 117 110 104 97 93
79 340 335 227 211 248 163 296 237 188 166 229 232 233 229 228 197 213 208 207 190 198 187 193 195 195 200 205 195 172 181 167 167 154 157 155 154 150 144 141 138 135 133 124 111 105 104 101 96
59 52 15 294 148 304 153 261 275 329 196 245 241 248 238 236 225 227 216 210 193 181 190 187 192 191 193 194 184 164 159 160 161 150 158 155 155 152 144 146 140 136 134 132 119 120 110 104 101
7 212 206 314 197 142 167 266 260 243 210 267 253 242 244 254 242 234 217 209 197 193 184 191 190 186 174 163 161 146 146 160 163 139 151 153 155 149 146 147 143 140 127 126 124 114 122 118 108
201 199 242 245 214 186 227 261 261 259 237 249 266 257 245 242 242 226 211 203 195 192 186 181 180 178 164 143 135 105 128 119 142 137 131 149 148 145 137 133 136 148 129 125 120 122 123 121 118
138 177 211 239 239 192 236 253 264 258 241 264 254 248 248 240 248 211 205 199 189 189 183 182 177 178 165 159 163 167 169 154 118 113 128 122 140 147 143 136 135 154 157 142 137 130 132 124 131
158 170 246 285 238 187 269 261 258 247 241 228 243 251 245 242 236 214 202 193 193 188 190 186 189 177 179 173 144 144 144 122 105 124 152 143 125 144 151 151 151 159 153 139 147 148 141 132 185
205 183 208 226 320 243 325 280 254 277 253 254 250 247 254 239 242 223 193 196 190 193 190 189 189 179 178 163 126 106 101 85 108 162 173 156 155 155 148 157 149 168 156 153 158 161 159 155 172
240 202 164 169 80 253 109 286 281 237 252 250 254 242 245 242 240 214 191 197 199 205 188 185 186 179 178 163 163 174 171 159 175 163 150 151 151 151 167 161 149 162 155 154 164 162 153 142 151
221 131 159 145 189 349 190 269 234 9 270 255 253 253 252 232 226 223 202 211 205 184 182 180 186 179 173 178 180 181 176 159 136 136 141 130 118 133 150 140 151 146 153 152 158 158 160 153 152
146 85 57 53 81 274 184 186 232 184 212 262 263 266 293 255 239 245 219 186 180 172 177 179 189 184 175 179 183 189 173 150 146 151 150 158 145 107 120 128 138 141 138 148 153 154 156 157 154
163 114 299 326 20 243 161 231 255 261 217 224 249 274 77 55 282 242 212 191 162 176 182 182 191 190 177 183 186 190 172 168 171 167 166 160 160 163 175 155 153 148 147 145 144 150 155 155 144
202 166 168 205 209 265 198 239 248 233 254 255 265 269 187 222 251 247 224 203 175 179 185 186 195 187 179 183 188 183 171 175 177 174 169 175 179 175 166 156 149 144 143 140 137 134 131 127 120
194 205 175 78 77 356 228 288 286 259 280 259 255 254 238 253 245 236 217 197 183 181 189 189 190 193 185 180 173 177 174 173 172 169 169 172 162 156 164 161 148 145 142 140 138 133 127 118 116
164 170 84 346 189 251 262 262 236 259 245 257 263 245 242 231 234 238 221 202 191 184 186 191 188 192 184 177 167 177 178 175 169 164 172 171 153 154 159 157 147 143 141 142 138 129 126 124 123
139 207 113 139 157 181 295 266 208 228 244 256 268 276 256 227 245 238 225 206 197 174 178 188 182 175 176 177 168 172 177 177 170 173 170 164 152 158 164 161 149 153 149 148 136 137 140 139 139
349 212 161 159 225 248 175 264 135 219 334 298 236 356 317 177 200 234 233 201 212 185 178 187 187 185 185 181 173 177 174 173 172 172 166 159 159 160 157 157 154 162 152 153 150 148 151 150 153